• In Netherlands
  • List of Countries
  • For 7 days
  • Water Temperature
  • Satellite Maps
  • Weather Map
  • Weather Widgets
  • user-avatar
    Login

    Hourly Weather Mahilyow

    Today, 28 May, Sunday

    Time Temperature Precipitation Wind Pressure Humidity
    00:00 +12°C° 0 mm 2 mps 751 mmHg 81%
    01:00 +10°C° 0 mm 2 mps 751 mmHg 83%
    02:00 +10°C° 0 mm 2 mps 750 mmHg 82%
    03:00 +10°C° 0 mm 2 mps 750 mmHg 82%
    04:00 +10°C° 0 mm 2 mps 751 mmHg 82%
    05:00 +10°C° 0 mm 2 mps 751 mmHg 82%
    06:00 +12°C° 0 mm 3 mps 751 mmHg 75%
    07:00 +14°C° 0 mm 4 mps 750 mmHg 67%
    08:00 +17°C° 0 mm 4 mps 750 mmHg 60%
    09:00 +19°C° 0 mm 4 mps 750 mmHg 57%
    10:00 +20°C° 0 mm 4 mps 750 mmHg 53%
    11:00 +22°C° 0 mm 4 mps 750 mmHg 49%
    12:00 +22°C° 0 mm 4 mps 750 mmHg 48%
    13:00 +23°C° 0 mm 4 mps 750 mmHg 47%
    14:00 +25°C° 0 mm 4 mps 750 mmHg 45%
    15:00 +25°C° 0 mm 3 mps 750 mmHg 48%
    16:00 +25°C° 0 mm 3 mps 750 mmHg 50%
    17:00 +25°C° 0 mm 2 mps 750 mmHg 52%
    18:00 +21°C° 0 mm 2 mps 750 mmHg 62%
    19:00 +20°C° 0 mm 1 mps 750 mmHg 73%
    20:00 +16°C° 0 mm 1 mps 750 mmHg 83%
    21:00 +16°C° 0 mm 1 mps 749 mmHg 82%
    22:00 +16°C° 0 mm 2 mps 749 mmHg 82%
    23:00 +16°C° 0 mm 2 mps 749 mmHg 81%

    Tomorrow, 29 May, Monday

    Time Temperature Precipitation Wind Pressure Humidity
    00:00 +16°C° 0 mm 2 mps 749 mmHg 83%
    01:00 +15°C° 0 mm 2 mps 749 mmHg 85%
    02:00 +14°C° 0 mm 3 mps 749 mmHg 87%
    03:00 +14°C° 0 mm 3 mps 748 mmHg 86%
    04:00 +14°C° 0 mm 3 mps 748 mmHg 84%
    05:00 +14°C° 0 mm 3 mps 747 mmHg 82%
    06:00 +17°C° 0 mm 4 mps 747 mmHg 74%
    07:00 +19°C° 0 mm 4 mps 747 mmHg 66%
    08:00 +21°C° 0 mm 5 mps 746 mmHg 58%
    09:00 +22°C° 0 mm 6 mps 746 mmHg 53%
    10:00 +24°C° 0 mm 6 mps 745 mmHg 48%
    11:00 +26°C° 0 mm 7 mps 745 mmHg 43%
    12:00 +26°C° 0 mm 7 mps 744 mmHg 42%
    13:00 +26°C° 0 mm 7 mps 744 mmHg 42%
    14:00 +27°C° 0 mm 7 mps 743 mmHg 41%
    15:00 +26°C° 0.1 mm 6 mps 743 mmHg 47%
    16:00 +26°C° 0.1 mm 5 mps 743 mmHg 52%
    17:00 +25°C° 0.1 mm 4 mps 742 mmHg 58%
    18:00 +22°C° 0.6 mm 4 mps 742 mmHg 67%
    19:00 +20°C° 0.6 mm 3 mps 742 mmHg 77%
    20:00 +18°C° 0.6 mm 3 mps 742 mmHg 87%
    21:00 +18°C° 0.5 mm 2 mps 742 mmHg 90%
    22:00 +17°C° 0.5 mm 2 mps 742 mmHg 93%
    23:00 +16°C° 0.5 mm 2 mps 742 mmHg 96%

    Day after tomorrow, 30 May, Tuesday

    Time Temperature Precipitation Wind Pressure Humidity
    00:00 +15°C° 0 mm 2 mps 742 mmHg 97%
    01:00 +15°C° 0 mm 2 mps 742 mmHg 97%
    02:00 +14°C° 0 mm 2 mps 742 mmHg 98%
    03:00 +14°C° 0 mm 2 mps 742 mmHg 98%
    04:00 +14°C° 0 mm 2 mps 743 mmHg 98%
    05:00 +14°C° 0 mm 2 mps 743 mmHg 98%
    06:00 +15°C° 0 mm 2 mps 743 mmHg 95%
    07:00 +16°C° 0 mm 2 mps 743 mmHg 92%
    08:00 +17°C° 0 mm 2 mps 744 mmHg 89%
    09:00 +19°C° 0.1 mm 2 mps 744 mmHg 82%
    10:00 +20°C° 0.1 mm 2 mps 744 mmHg 74%
    11:00 +21°C° 0.1 mm 2 mps 744 mmHg 67%
    12:00 +23°C° 0 mm 2 mps 745 mmHg 61%
    13:00 +24°C° 0 mm 3 mps 745 mmHg 56%
    14:00 +24°C° 0 mm 3 mps 745 mmHg 50%
    15:00 +24°C° 0 mm 2 mps 745 mmHg 51%
    16:00 +24°C° 0 mm 2 mps 745 mmHg 52%
    17:00 +24°C° 0 mm 2 mps 745 mmHg 52%
    18:00 +21°C° 0 mm 2 mps 745 mmHg 62%
    19:00 +19°C° 0 mm 2 mps 745 mmHg 71%
    20:00 +17°C° 0 mm 2 mps 745 mmHg 80%
    21:00 +16°C° 0 mm 2 mps 745 mmHg 83%
    22:00 +15°C° 0 mm 2 mps 745 mmHg 87%
    23:00 +14°C° 0 mm 2 mps 745 mmHg 90%

    31 May, Wednesday

    Time Temperature Precipitation Wind Pressure Humidity
    00:00 +14°C° 0 mm 2 mps 744 mmHg 91%
    01:00 +14°C° 0 mm 2 mps 744 mmHg 92%
    02:00 +14°C° 0 mm 2 mps 744 mmHg 93%
    03:00 +14°C° 0 mm 2 mps 743 mmHg 92%
    04:00 +14°C° 0 mm 2 mps 743 mmHg 91%
    05:00 +15°C° 0 mm 2 mps 743 mmHg 89%
    06:00 +17°C° 0 mm 3 mps 743 mmHg 82%
    07:00 +19°C° 0 mm 3 mps 742 mmHg 74%
    08:00 +21°C° 0 mm 4 mps 742 mmHg 66%
    09:00 +23°C° 0 mm 4 mps 742 mmHg 61%
    10:00 +25°C° 0 mm 4 mps 742 mmHg 56%
    11:00 +26°C° 0 mm 4 mps 742 mmHg 50%
    12:00 +26°C° 0 mm 4 mps 741 mmHg 53%
    13:00 +26°C° 0 mm 4 mps 741 mmHg 55%
    14:00 +26°C° 0 mm 4 mps 741 mmHg 58%
    15:00 +25°C° 0.1 mm 4 mps 740 mmHg 61%
    16:00 +25°C° 0.1 mm 3 mps 740 mmHg 65%
    17:00 +25°C° 0.1 mm 3 mps 739 mmHg 69%
    18:00 +22°C° 0.4 mm 3 mps 739 mmHg 77%
    19:00 +21°C° 0.4 mm 3 mps 739 mmHg 84%
    20:00 +20°C° 0.4 mm 3 mps 739 mmHg 91%
    21:00 +19°C° 0.6 mm 3 mps 739 mmHg 92%
    22:00 +18°C° 0.6 mm 3 mps 739 mmHg 93%
    23:00 +17°C° 0.6 mm 3 mps 739 mmHg 94%

    1 June, Thursday

    Time Temperature Precipitation Wind Pressure Humidity
    00:00 +14°C° 0 mm 3 mps 740 mmHg 93%
    01:00 +13°C° 0 mm 3 mps 740 mmHg 91%
    02:00 +13°C° 0 mm 2 mps 740 mmHg 90%
    03:00 +12°C° 0 mm 2 mps 740 mmHg 90%
    04:00 +11°C° 0 mm 3 mps 741 mmHg 90%
    05:00 +10°C° 0 mm 3 mps 741 mmHg 91%
    06:00 +12°C° 0 mm 4 mps 741 mmHg 82%
    07:00 +13°C° 0 mm 4 mps 741 mmHg 74%
    08:00 +15°C° 0 mm 5 mps 741 mmHg 65%
    09:00 +15°C° 0 mm 5 mps 741 mmHg 64%
    10:00 +15°C° 0 mm 6 mps 740 mmHg 62%
    11:00 +15°C° 0 mm 6 mps 740 mmHg 60%
    12:00 +15°C° 0.1 mm 6 mps 740 mmHg 61%
    13:00 +15°C° 0.1 mm 6 mps 740 mmHg 62%
    14:00 +15°C° 0.1 mm 6 mps 740 mmHg 63%
    15:00 +15°C° 0.1 mm 6 mps 740 mmHg 65%
    16:00 +14°C° 0.1 mm 5 mps 740 mmHg 67%
    17:00 +14°C° 0.1 mm 5 mps 740 mmHg 69%
    18:00 +13°C° 0.1 mm 6 mps 740 mmHg 70%
    19:00 +11°C° 0.1 mm 6 mps 740 mmHg 71%
    20:00 +10°C° 0.1 mm 6 mps 741 mmHg 72%
    21:00 +9°C° 0 mm 6 mps 741 mmHg 72%
    22:00 +8°C° 0 mm 6 mps 742 mmHg 72%
    23:00 +7°C° 0 mm 6 mps 743 mmHg 72%

    2 June, Friday

    Time Temperature Precipitation Wind Pressure Humidity
    00:00 +6°C° 0 mm 5 mps 744 mmHg 72%
    01:00 +5°C° 0 mm 5 mps 744 mmHg 72%
    02:00 +5°C° 0 mm 4 mps 745 mmHg 72%
    03:00 +5°C° 0 mm 4 mps 745 mmHg 72%
    04:00 +4°C° 0 mm 4 mps 745 mmHg 72%
    05:00 +4°C° 0 mm 4 mps 745 mmHg 73%
    06:00 +6°C° 0 mm 5 mps 746 mmHg 65%
    07:00 +7°C° 0 mm 6 mps 746 mmHg 57%
    08:00 +9°C° 0 mm 7 mps 746 mmHg 49%
    09:00 +10°C° 0 mm 7 mps 746 mmHg 44%
    10:00 +11°C° 0 mm 7 mps 747 mmHg 39%
    11:00 +12°C° 0 mm 7 mps 747 mmHg 33%
    12:00 +12°C° 0 mm 7 mps 747 mmHg 33%
    13:00 +14°C° 0 mm 7 mps 747 mmHg 32%
    14:00 +14°C° 0 mm 6 mps 747 mmHg 32%
    15:00 +14°C° 0 mm 6 mps 748 mmHg 35%
    16:00 +14°C° 0 mm 5 mps 748 mmHg 37%
    17:00 +13°C° 0 mm 4 mps 748 mmHg 40%
    18:00 +12°C° 0 mm 3 mps 748 mmHg 50%
    19:00 +10°C° 0 mm 3 mps 748 mmHg 60%
    20:00 +8°C° 0 mm 2 mps 749 mmHg 69%
    21:00 +8°C° 0 mm 2 mps 749 mmHg 73%
    22:00 +7°C° 0 mm 2 mps 749 mmHg 77%
    23:00 +6°C° 0 mm 2 mps 749 mmHg 80%
    Show more